Pagina principale
METAR-TAF:

METAR-TAF

Aeroporti :

Taunton Municipal Airport (King Field)

Taunton, Massachusetts, Stati Uniti

latitudine: 41-52-32N, longitudine: 071-01-16W, altezza: 13 m

Osservazione

Il bollettino è stato emesso 32 minuti fa, alle 07:52 UTC
Vento calmo
Temperature 20°C
Umidità 94%
Pressione 1013 hPa
Visibilità: 11.3 km
Cielo sereno

METAR: KTAN 160752Z AUTO 00000KT 7SM CLR 20/19 A2992 RMK AO2 SLP131 T02000189

Ora: 04:24 (08:24 UTC)


TAF: mancante

Osservazioni e previsioni meteorologiche di più di 4000 aeroporti (messaggi METAR e TAF).

Le stazioni disponibili sono rappresentate dai dischi gialli e rossi sulla carta.

Puntare il mouse per vedere il nome della stazione.

Clicca sopra per visualizzare le osservazioni e previsioni meteorologiche.

Per cambiare la mappa : fare clic sui pulsanti verdi con una croce nera per ingrandire, il pulsante verde con un trattino per diminuire, o sulla freccia verde per le mappe adiacenti.


METAR-TAF: